Dewpoint
58 49 42 30 12 21 17 21 25 24 33 41 43 49 52 51 49 45 48 62 66 67 68 68 70 69 68 68 68 68 68 67 65 65 64 62 62 62 62 61 62 62 64 65 65 65 66 67 67
49 44 34 23 7 7 15 21 24 25 46 45 41 45 48 48 46 37 53 59 68 68 69 68 68 66 64 63 64 66 65 64 63 63 61 60 60 60 60 60 60 60 60 60 61 61 61 63 64
44 37 27 16 13 2 13 21 24 35 44 31 37 37 43 37 31 29 42 65 65 66 68 68 67 64 62 62 64 64 62 62 62 61 59 59 58 58 58 58 59 59 59 59 60 59 59 60 60
36 31 27 15 7 17 19 23 28 39 28 33 36 36 33 33 30 31 44 60 56 60 64 66 64 62 61 61 62 62 61 61 60 58 57 56 55 56 57 57 57 58 59 59 59 59 59 59 59
34 28 12 14 14 19 21 23 27 27 21 33 33 33 32 31 32 33 38 38 47 47 52 63 62 60 60 60 61 60 60 60 58 57 56 55 56 57 57 57 57 57 58 58 58 58 58 58 58
25 26 11 8 15 20 21 21 19 19 22 30 31 32 30 32 32 37 39 38 38 39 44 54 61 62 60 59 59 59 60 59 58 57 57 57 57 57 57 57 57 57 57 58 58 58 58 57 57
24 19 9 13 16 19 20 21 19 20 22 25 32 30 30 32 35 41 42 43 44 45 44 46 54 60 61 61 60 59 60 60 60 59 59 59 58 57 57 58 57 57 57 57 57 57 57 57 57
32 24 18 18 17 19 21 22 21 21 20 29 29 26 28 31 39 42 43 44 45 46 46 45 47 54 55 58 60 62 63 61 61 60 59 57 57 57 57 57 57 57 57 56 56 56 56 55 56
31 24 18 17 17 17 23 22 24 20 18 24 28 29 32 37 41 41 41 43 44 45 46 47 45 51 53 56 58 59 58 57 57 59 56 54 55 56 55 56 56 56 56 56 55 55 55 55 54
25 22 15 21 19 19 22 22 21 18 20 24 30 34 37 39 39 38 38 40 43 44 46 47 46 49 50 51 53 54 53 49 50 52 52 53 53 55 54 54 54 55 55 55 55 54 54 54 54
24 19 17 26 26 24 23 22 18 18 17 22 24 32 37 38 37 37 39 42 43 45 46 46 47 47 47 50 51 52 49 49 49 49 49 49 49 51 52 52 53 53 53 54 54 53 53 53 53
26 24 26 28 25 23 22 21 17 17 16 22 28 34 36 37 37 38 40 43 44 45 45 46 47 47 47 49 49 49 48 49 49 49 49 49 50 51 51 51 52 53 53 54 54 54 53 53 53
25 23 28 25 24 23 22 20 19 17 24 25 34 34 35 36 37 39 42 45 45 44 45 46 47 47 46 45 45 45 46 48 48 50 50 50 51 51 51 51 52 52 54 54 54 53 53 53 53
24 26 26 21 23 23 20 21 23 20 27 29 33 33 35 36 37 39 42 44 45 46 45 47 46 46 46 45 46 47 47 49 51 50 50 51 51 51 51 51 51 51 53 54 53 53 52 53 52
26 21 22 22 22 21 20 14 17 23 28 30 32 33 36 37 38 38 41 44 46 47 48 49 49 48 48 48 48 48 49 49 49 49 50 51 51 51 51 51 50 50 51 52 51 51 51 51 51
19 15 11 18 24 24 13 -5 14 26 27 28 31 33 34 37 37 39 42 45 47 48 48 48 49 49 48 48 49 48 49 49 49 46 45 46 48 50 50 49 47 48 48 48 47 49 48 49 49
13 7 9 13 25 22 13 -1 20 26 25 26 27 32 33 35 37 37 41 44 47 48 46 48 48 48 48 48 48 49 48 46 44 42 43 45 46 46 45 43 43 44 45 45 44 42 44 44 42
3 5 8 3 22 22 18 13 17 25 24 24 25 30 32 33 34 36 40 43 46 47 47 48 48 48 48 48 48 49 45 42 41 41 42 43 42 41 40 39 38 40 39 38 38 39 39 43 40
4 1 3 17 22 20 18 17 16 22 25 24 24 28 30 31 34 38 38 42 45 45 46 47 45 46 47 47 46 46 47 43 41 39 40 42 40 39 38 37 36 37 36 36 36 35 36 37 38
8 4 6 20 20 19 18 17 19 18 23 24 24 26 30 30 33 35 38 42 44 45 46 44 40 42 44 46 47 47 47 42 40 39 38 39 39 39 37 36 35 36 35 34 35 35 33 36 38
11 7 12 12 20 20 19 15 17 20 22 24 26 25 30 31 33 34 37 42 44 45 43 39 38 39 39 41 42 41 40 40 38 37 36 37 38 39 38 36 34 34 35 33 34 34 34 31 35
5 14 15 18 16 8 17 -0 8 15 22 23 23 26 26 31 33 36 38 42 43 42 40 39 38 38 37 37 36 34 34 32 36 37 36 35 35 37 37 37 35 34 35 33 34 32 34 33 30
11 21 19 16 15 13 14 11 10 20 19 23 24 25 28 31 34 37 39 42 42 39 38 38 37 36 36 35 34 33 33 34 35 35 33 32 33 34 35 36 35 34 34 34 33 33 32 33 32
25 23 23 23 17 10 10 11 6 6 15 22 26 25 29 32 36 38 40 41 38 37 36 36 35 35 35 34 34 33 32 32 32 32 31 32 32 33 33 33 34 35 34 33 34 34 33 32 32
23 17 13 11 11 9 18 11 9 14 22 23 26 27 31 34 37 38 38 38 37 36 35 35 34 34 34 34 33 33 33 33 32 32 32 32 32 32 32 33 33 33 34 34 34 33 33 32 31
21 14 10 2 2 7 20 11 9 19 24 25 28 30 33 34 37 37 37 37 36 35 35 35 34 34 34 33 33 33 33 33 33 32 32 31 30 30 31 30 31 32 33 33 33 33 33 33 32
21 17 16 14 19 13 17 18 15 20 23 25 29 30 32 34 35 35 35 35 35 33 33 33 33 33 33 32 33 31 30 28 28 28 28 28 28 26 26 29 30 31 33 33 33 33 32 32 31
22 22 15 16 1 -3 7 11 6 16 20 25 28 29 31 32 33 34 34 34 34 34 34 34 34 31 28 26 25 25 25 26 26 26 23 23 24 25 26 26 27 28 30 32 32 33 33 32 32
21 20 19 16 11 2 1 5 17 15 20 23 27 28 30 31 32 30 30 31 32 31 28 24 22 21 22 23 23 23 25 25 25 24 23 23 25 24 24 25 27 27 27 28 30 31 32 31 31
23 20 18 6 11 14 12 8 21 21 22 24 27 28 31 30 27 24 20 19 19 18 18 18 20 20 21 22 23 23 24 24 23 23 23 24 23 24 24 25 26 25 26 27 29 29 29 29 29
Wind_Speed
10 9 3 4 2 3 3 4 2 7 5 1 4 4 7 5 3 4 0 10 12 10 8 10 11 10 11 11 10 11 12 13 13 14 15 16 16 17 16 17 17 17 17 19 18 18 19 17 16
9 5 6 3 3 4 4 3 9 7 7 12 8 5 4 4 2 4 3 8 9 10 8 9 10 11 11 11 11 12 12 13 14 15 16 17 17 18 18 17 17 18 18 19 19 18 18 17 16
2 5 3 4 4 7 5 7 9 9 12 3 5 6 3 6 3 2 2 3 8 9 8 9 10 10 11 11 11 12 12 14 15 16 16 16 17 17 17 18 18 19 19 18 18 19 18 18 17
4 5 5 2 5 3 2 8 7 17 2 2 8 9 2 1 1 1 2 5 8 7 7 8 10 10 10 10 11 11 13 14 15 16 16 16 17 18 18 18 18 19 19 19 19 18 19 19 19
5 4 0 2 4 2 2 7 11 11 6 5 3 7 4 1 3 4 5 5 7 6 6 7 9 9 10 10 11 11 13 14 15 16 17 17 17 17 17 18 18 19 18 17 17 17 18 18 18
4 2 1 7 5 2 3 7 7 6 4 6 6 8 4 1 4 5 7 9 8 8 6 7 8 9 9 10 11 12 13 14 15 14 15 14 15 16 16 17 17 18 18 18 18 17 17 18 19
3 1 4 4 7 5 7 9 7 8 7 4 11 6 3 4 5 7 8 8 9 8 8 6 6 8 10 9 11 12 13 13 12 12 13 12 13 13 14 14 15 16 17 18 17 17 16 16 16
4 2 3 5 12 8 10 6 5 5 4 5 1 6 6 8 9 8 8 9 9 8 8 6 5 6 7 8 12 13 12 11 10 10 10 9 10 10 11 10 13 13 14 16 15 15 18 19 21
3 4 5 5 9 5 10 6 2 3 9 3 2 4 1 18 13 10 8 6 6 7 8 6 5 6 7 8 10 11 10 9 7 7 7 7 6 7 7 9 10 11 11 13 15 17 17 17 14
4 3 5 3 4 6 11 6 12 7 8 3 3 5 10 15 13 13 9 8 5 5 6 6 5 7 6 7 7 7 6 6 7 6 6 6 7 7 7 7 9 9 9 11 14 14 13 11 9
4 6 3 3 3 5 10 8 3 11 8 9 13 17 14 12 11 10 8 8 7 4 5 7 7 5 5 6 5 5 5 5 5 7 6 6 6 6 7 7 8 8 8 6 8 8 8 9 9
7 7 5 3 1 4 9 9 6 7 3 3 12 20 15 15 12 10 10 8 7 6 5 6 7 7 7 6 7 6 5 5 5 5 5 6 6 7 8 8 9 9 7 7 8 8 10 10 11
18 5 3 2 2 4 7 4 4 8 2 7 19 16 17 14 11 8 8 7 7 7 6 6 7 8 8 9 6 6 6 6 5 6 7 6 7 7 7 8 8 8 7 6 8 9 11 12 13
5 5 4 3 4 3 5 3 2 4 6 14 20 17 15 15 13 10 9 9 7 8 7 6 8 7 7 8 7 7 7 7 8 7 7 8 7 7 7 8 8 9 8 7 8 9 10 11 12
9 8 3 6 5 3 4 5 9 5 11 18 17 15 13 12 11 13 11 10 9 7 7 8 8 7 9 9 8 7 8 8 8 8 9 9 8 7 7 7 9 9 8 9 9 10 10 11 11
7 3 8 5 7 3 5 7 6 10 18 19 16 14 13 11 11 10 9 9 8 9 9 7 7 8 8 9 9 9 8 9 9 8 8 10 9 9 8 9 9 9 9 10 10 10 11 11 11
4 10 9 3 10 5 8 4 2 9 15 18 16 15 13 11 9 8 9 10 9 8 8 8 8 8 9 9 9 10 10 10 9 9 9 10 11 11 10 9 10 10 10 11 11 11 10 10 14
11 7 4 7 9 6 8 12 3 9 15 19 16 15 15 14 13 11 10 9 8 8 7 8 7 7 7 7 8 8 9 9 9 10 10 11 10 11 10 9 11 10 10 12 13 11 11 9 14
9 8 6 3 5 6 13 10 10 10 13 18 17 17 16 15 9 10 10 10 9 8 8 7 8 5 5 3 5 4 5 5 7 9 10 10 10 10 10 9 10 11 11 11 13 10 13 11 18
7 8 5 1 4 5 2 16 15 14 17 21 23 20 19 13 12 12 12 10 9 10 8 8 8 7 6 5 4 3 4 5 6 5 8 9 8 8 8 9 9 10 9 12 13 14 9 5 12
4 7 8 2 4 2 5 11 11 7 12 13 17 16 14 20 19 16 14 11 10 10 9 9 8 8 7 6 7 6 5 4 3 5 5 6 6 6 6 7 7 8 8 9 9 10 11 10 6
12 7 8 10 7 5 1 7 5 8 11 14 18 20 21 19 15 15 15 13 12 10 9 10 9 9 8 7 9 8 6 4 1 1 2 4 5 5 5 5 5 6 5 7 7 7 6 6 9
3 8 9 6 5 1 3 4 7 2 13 19 19 19 19 21 21 20 17 15 11 11 11 10 9 9 8 9 9 9 8 4 1 2 4 5 6 5 6 6 6 6 5 5 6 6 6 4 4
18 13 11 7 3 7 7 10 7 8 6 5 12 16 19 20 19 16 14 13 12 9 10 9 10 8 7 8 8 8 7 4 4 5 7 8 7 6 9 10 10 10 10 9 9 7 6 5 5
3 12 3 4 7 10 1 6 13 4 4 1 15 17 17 19 20 19 18 15 13 11 10 9 8 8 6 7 7 6 6 4 4 4 5 8 9 9 11 11 12 12 11 12 10 10 10 8 8
10 7 8 9 9 6 3 10 6 2 1 1 4 15 18 19 18 19 16 14 13 11 9 8 8 8 6 6 6 5 4 4 3 4 5 6 7 9 11 13 14 15 15 15 14 12 12 11 10
7 12 5 8 2 1 5 6 8 4 2 4 12 19 20 19 18 17 13 12 12 11 9 9 9 8 6 6 5 6 5 5 4 4 4 6 7 9 12 13 14 15 15 15 16 14 15 13 12
5 10 6 2 7 8 4 6 8 9 13 11 17 22 19 17 17 15 13 12 9 9 9 10 9 9 8 7 6 4 4 4 4 4 7 8 9 9 12 13 13 15 16 17 16 15 15 16 15
7 7 3 6 4 8 5 6 6 10 14 17 18 18 20 18 16 14 11 10 11 12 12 12 11 9 7 5 3 4 4 4 4 5 7 8 8 10 12 13 14 15 16 17 16 17 17 18 19
3 8 10 10 9 2 3 5 3 4 4 10 16 16 15 16 15 15 15 15 15 13 11 9 7 6 4 3 3 4 5 6 8 9 11 11 13 13 13 13 14 15 16 16 17 19 19 20 21
Wind_Direction
341 344 26 39 145 60 178 194 151 146 165 112 101 146 148 67 128 139 66 26 135 108 99 98 97 90 82 78 76 76 75 68 67 64 60 58 56 53 51 45 40 34 31 30 23 19 19 17 16
337 357 44 84 130 193 223 188 179 164 136 120 90 83 68 98 86 110 110 14 93 99 99 98 95 89 86 82 84 83 79 75 72 69 65 63 61 58 55 51 47 45 43 39 35 30 22 14 10
20 42 26 109 128 205 210 189 154 144 148 124 106 52 102 119 100 100 67 95 94 87 87 92 92 89 86 85 86 85 82 80 78 75 71 65 61 58 55 52 49 45 41 38 36 33 29 22 15
5 25 57 152 200 221 205 173 148 147 198 148 126 105 86 23 140 124 109 113 101 79 68 83 89 88 87 89 88 85 84 85 83 78 70 66 65 62 58 55 51 47 43 39 35 36 35 29 23
41 64 156 155 210 235 218 156 148 156 141 142 165 148 119 68 94 85 109 109 112 87 63 75 86 89 90 92 92 92 91 88 81 77 71 69 64 59 56 52 49 45 42 40 36 32 30 26 20
28 59 176 209 206 199 163 162 153 146 141 151 113 121 149 324 144 89 90 84 77 80 66 64 65 84 90 94 98 97 96 91 82 78 73 68 62 55 50 45 41 39 37 36 35 32 28 24 20
32 292 231 200 183 179 177 159 175 157 142 167 144 122 145 169 130 102 89 83 73 66 68 64 70 78 78 91 96 100 98 92 84 76 71 64 59 54 49 43 43 35 32 32 27 26 25 26 26
75 321 207 212 186 195 165 144 148 148 147 126 104 175 178 183 150 111 86 76 70 64 61 59 91 96 90 95 98 96 96 95 89 84 73 64 55 48 42 40 31 30 33 30 26 23 23 22 16
79 265 244 219 173 195 167 149 146 111 126 99 55 137 267 138 138 127 114 92 77 60 50 53 100 111 107 102 95 94 90 83 76 69 56 53 49 44 34 25 26 24 26 28 26 21 18 12 7
282 233 245 221 210 196 171 172 153 156 143 117 103 83 124 140 149 148 144 127 101 77 55 57 99 121 108 106 101 92 80 75 65 63 47 47 42 37 35 28 27 23 22 23 21 17 8 359 345
236 242 290 248 261 178 156 150 156 148 192 184 184 160 156 153 154 148 133 125 119 94 64 58 85 109 115 117 106 98 92 79 65 56 52 58 57 40 35 29 21 15 14 18 11 6 2 348 344
291 249 255 230 232 158 168 142 163 187 170 151 172 158 158 161 162 155 144 138 129 111 85 69 77 98 102 105 102 107 98 84 72 66 50 45 42 40 33 32 13 13 6 1 2 356 353 356 353
219 209 226 223 149 128 133 181 175 211 170 123 143 155 163 162 159 152 143 133 124 113 91 77 90 93 100 100 99 91 85 78 78 68 53 43 43 39 36 34 18 19 15 8 355 352 354 354 352
195 173 199 205 175 149 179 205 189 200 148 146 154 164 165 164 162 149 156 146 131 120 111 93 83 93 105 98 90 81 85 81 80 70 59 54 49 37 32 34 26 17 12 6 359 355 354 353 351
161 167 191 212 194 186 148 239 227 164 157 158 164 163 162 168 166 169 163 150 138 122 114 101 104 102 100 95 93 86 84 80 69 59 52 49 44 39 39 34 26 15 13 13 7 4 3 1 354
162 166 191 197 175 200 173 250 215 167 159 168 169 169 170 172 178 167 160 141 142 127 114 106 101 96 97 95 94 91 82 78 69 57 47 38 38 39 42 35 26 13 20 17 10 11 3 5 357
199 197 200 198 202 163 195 246 175 177 176 175 182 181 178 173 177 171 158 151 147 136 131 110 102 99 102 97 93 88 84 75 66 58 50 40 43 41 46 38 26 21 26 24 12 8 8 5 355
184 181 188 204 199 192 200 236 222 190 191 193 190 187 186 184 182 169 156 149 138 132 114 108 97 96 104 106 106 94 86 74 63 56 52 47 43 39 42 38 33 28 27 20 12 8 7 7 352
157 139 171 204 184 188 225 247 234 200 201 205 201 195 191 189 176 160 151 143 136 128 124 115 108 83 127 125 128 112 98 82 68 58 51 48 42 37 36 34 28 26 31 21 15 358 4 11 0
143 139 177 123 149 189 282 262 250 209 214 205 198 198 192 178 166 159 154 152 156 143 130 118 106 98 96 111 122 125 131 93 81 66 52 44 41 36 37 32 28 26 22 22 20 18 358 356 14
168 171 178 177 139 73 319 280 236 216 211 201 207 200 192 183 172 168 163 160 150 146 140 128 116 104 97 118 117 102 96 91 60 38 34 24 27 35 37 32 28 23 24 18 14 15 17 353 348
203 186 153 147 152 230 352 273 261 215 215 215 205 198 193 184 172 166 164 162 160 149 140 131 121 109 96 98 99 100 99 100 72 35 3 1 12 15 21 19 14 13 8 8 4 7 10 1 352
174 128 135 121 130 51 201 246 258 192 230 223 212 202 191 181 173 171 172 165 160 154 148 138 125 110 100 95 97 101 97 97 100 32 8 3 357 355 355 350 341 345 344 337 336 342 347 347 325
143 98 67 66 89 251 217 211 259 208 217 212 203 195 182 173 168 164 162 156 152 153 148 141 128 115 111 101 95 97 99 90 48 23 12 359 349 347 355 346 340 330 326 325 319 308 295 294 282
115 131 130 201 203 231 133 196 251 229 223 253 196 179 172 164 162 162 163 164 160 157 153 146 138 123 108 96 89 84 84 75 57 28 360 345 342 335 335 333 330 320 308 299 292 284 280 273 266
177 167 185 198 198 194 123 230 253 194 313 336 152 163 156 161 164 167 165 159 158 160 158 146 135 120 109 101 98 88 79 64 44 11 351 344 329 321 325 332 328 319 314 305 293 278 274 271 266
177 206 156 106 65 205 209 269 265 219 153 131 151 153 161 165 165 159 152 154 156 157 147 139 126 115 101 94 88 72 64 52 31 4 339 328 331 339 337 332 328 323 317 312 305 291 279 276 273
186 153 164 125 205 224 241 261 227 194 190 171 168 168 165 159 155 151 146 144 136 128 124 116 111 105 97 91 79 67 37 14 353 343 343 340 334 333 329 325 323 321 316 310 304 295 282 272 269
150 186 121 139 182 195 184 238 210 188 188 183 181 173 162 155 148 139 127 118 119 113 111 107 102 100 88 69 40 5 354 348 332 321 317 314 307 309 315 315 310 307 307 306 303 295 288 280 278
198 187 171 186 202 163 158 239 165 195 211 181 170 158 147 142 136 128 124 120 116 113 109 104 95 84 58 27 357 340 334 328 320 311 304 306 307 303 294 293 294 295 294 293 292 292 290 287 281